Content
SEND FEEDBACK

Daily
Averages
Monthly
Summary
United States of America

CASS CITY, MICHIGAN


Home > North America > United States > Michigan
Elevation: 710 feet     Latitude: 43 35N     Longitude: 083 11W

WEATHER
 
SELECT A DAY
Number of Records: 226,907;   Date Range: 3/17/05 - 9/20/14
 
SHARE

PRINT THIS DATA

[ ← Previous Day ]
WEATHER ALMANAC - JANUARY 31, 2013
[ Next Day → ]
[ °C ]   °F
Weather ElementAverageHighLow
Temperature23.5 °F31.8 °F (12:35 am)19.2 °F (11:55 pm)
Dewpoint11.3 °F26.6 °F (12:35 am)5.4 °F (6:54 pm)
Humidity60.1 %81 % (12:35 am)46 % (11:35 am)
Barometer29.55 in29.82 in (11:55 pm)29.18 in (12:35 am)
Wind Speed21 mph31.1 mph (4:34 am)
Wind Gust40.3 mph (4:55 am)
Weather ElementAverage
Visibility9.4 mi
Wind DirectionW (269.1 °)

Weather ElementTotal
Precipitation---
Heating Degree Days39.5 (Base 65)
Averaged from 68 records on January 31, 2013
WEATHER CONDITIONS BREAKOUT
WIND DIRECTION BREAKOUT
WEATHER BY HOUR - JANUARY 31, 2013
[ °C ]   °F
Local TimeTemperatureDewpointHumidityBarometerVisibilityWind DirectionWind SpeedGust SpeedPrecipitationEventsConditions
12:35 AM31.8 °F26.6 °F81 %29.18 in10.0 miWest (260°)20.7 mph34.5 mphOvercast
12:54 AM30.9 °F24.3 °F76 %29.20 in10.0 miWest (260°)21.9 mph31.1 mphOvercast
1:15 AM30.2 °F21.4 °F70 %29.21 in10.0 miWest (270°)21.9 mph35.7 mphOvercast
1:35 AM29.7 °F20.8 °F70 %29.22 in10.0 miWest (280°)24.2 mph29.9 mphOvercast
1:54 AM28.9 °F21.0 °F72 %29.23 in10.0 miWest (260°)21.9 mph36.8 mphOvercast
2:15 AM28.4 °F20.5 °F72 %29.25 in10.0 miWest (260°)19.6 mph39.1 mphOvercast
2:34 AM27.7 °F19.8 °F72 %29.27 in10.0 miWest (260°)28.8 mph35.7 mphOvercast
2:55 AM27.1 °F18.5 °F70 %29.29 in10.0 miWest (260°)27.6 mph36.8 mphOvercast
3:15 AM26.6 °F18.1 °F70 %29.29 in10.0 miWest (260°)23.0 mph29.9 mphOvercast
3:34 AM26.4 °F17.1 °F68 %29.30 in10.0 miWest (260°)27.6 mph36.8 mphOvercast
3:55 AM25.7 °F16.3 °F68 %29.32 in10.0 miWest (260°)27.6 mph34.5 mphOvercast
4:15 AM25.3 °F15.6 °F67 %29.33 in10.0 miWest (270°)27.6 mph36.8 mphOvercast
4:34 AM24.8 °F14.5 °F65 %29.34 in10.0 miWest (260°)31.1 mph38.0 mphOvercast
4:55 AM24.6 °F14.2 °F65 %29.35 in10.0 miWest (260°)26.5 mph40.3 mphOvercast
5:14 AM24.8 °F16.2 °F70 %29.37 in10.0 miWest (260°)24.2 mph35.7 mphSnowLight Snow
5:34 AM23.9 °F16.0 °F72 %29.38 in7.0 miWest (260°)24.2 mph32.2 mphSnowLight Snow
5:55 AM23.5 °F16.2 °F73 %29.39 in2.0 miWest (270°)23.0 mph31.1 mphSnowLight Snow
6:14 AM23.9 °F14.0 °F66 %29.41 in7.0 miWest (270°)26.5 mph32.2 mphSnowLight Snow
6:35 AM23.7 °F12.0 °F61 %29.42 in10.0 miWest (270°)25.3 mph38.0 mphOvercast
6:54 AM23.5 °F12.0 °F61 %29.44 in10.0 miWest (280°)25.3 mph34.5 mphOvercast
7:14 AM23.5 °F12.4 °F62 %29.45 in10.0 miWest (270°)19.6 mph32.2 mphSnowLight Snow
7:35 AM23.0 °F12.7 °F65 %29.46 in10.0 miWest (270°)23.0 mph31.1 mphOvercast
7:54 AM23.2 °F12.6 °F64 %29.47 in10.0 miWest (260°)24.2 mph31.1 mphOvercast
8:14 AM22.3 °F13.8 °F70 %29.48 in2.5 miWest (260°)21.9 mph34.5 mphSnowLight Snow
8:35 AM22.8 °F11.5 °F62 %29.50 in7.0 miWest (270°)20.7 mph29.9 mphOvercast
8:54 AM22.8 °F10.0 °F58 %29.51 in10.0 miWest (270°)19.6 mph28.8 mphOvercast
9:14 AM23.0 °F10.0 °F58 %29.52 in10.0 miWest (270°)17.3 mph29.9 mphOvercast
9:34 AM22.8 °F8.8 °F55 %29.53 in10.0 miWest (270°)23.0 mph33.4 mphOvercast
9:55 AM23.0 °F8.6 °F54 %29.54 in10.0 miWest (270°)23.0 mph31.1 mphOvercast
10:35 AM23.4 °F9.1 °F55 %29.56 in10.0 miWest (270°)28.8 mph33.4 mphOvercast
10:55 AM23.7 °F8.2 °F52 %29.57 in10.0 miWest (270°)23.0 mph31.1 mphOvercast
11:14 AM23.9 °F6.8 °F48 %29.58 in10.0 miWest (270°)19.6 mph32.2 mphOvercast
11:35 AM23.9 °F5.9 °F46 %29.59 in10.0 miWest (270°)25.3 mph33.4 mphOvercast
11:59 AM23.9 °F7.2 °F49 %29.59 in10.0 miWest (270°)26.5 mph32.2 mphOvercast
12:14 PM25.0 °F8.6 °F50 %29.59 in10.0 miWest (270°)26.5 mph31.1 mphOvercast
12:35 PM25.0 °F9.5 °F52 %29.59 in10.0 miWest (260°)21.9 mph28.8 mphOvercast
12:54 PM24.3 °F7.2 °F48 %29.59 in10.0 miWest (260°)18.4 mph29.9 mphOvercast
1:14 PM23.7 °F7.3 °F50 %29.60 in10.0 miWest (270°)20.7 mph27.6 mphOvercast
1:35 PM23.0 °F8.6 °F54 %29.60 in7.0 miWest (280°)21.9 mph31.1 mphOvercast
1:54 PM23.4 °F8.4 °F53 %29.61 in10.0 miWest (270°)21.9 mph32.2 mphOvercast
2:14 PM23.9 °F6.4 °F47 %29.61 in10.0 miWest (270°)27.6 mph33.4 mphOvercast
2:35 PM23.9 °F6.1 °F47 %29.62 in10.0 miWest (280°)18.4 mph26.5 mphOvercast
2:54 PM23.7 °F7.3 °F50 %29.63 in10.0 miWest (280°)17.3 mph26.5 mphOvercast
3:14 PM23.5 °F6.3 °F48 %29.64 in10.0 miWest (270°)17.3 mph26.5 mphOvercast
3:35 PM23.5 °F7.5 °F50 %29.65 in10.0 miWSW (250°)18.4 mph26.5 mphOvercast
3:54 PM23.0 °F7.9 °F52 %29.66 in10.0 miWest (260°)18.4 mph26.5 mphOvercast
4:15 PM22.5 °F7.7 °F53 %29.66 in10.0 miWest (260°)18.4 mph24.2 mphOvercast
4:35 PM22.6 °F8.6 °F55 %29.67 in10.0 miWest (270°)16.1 mph25.3 mphOvercast
4:54 PM22.3 °F8.6 °F56 %29.68 in7.0 miWest (270°)18.4 mph25.3 mphOvercast
5:15 PM22.1 °F8.8 °F57 %29.69 in10.0 miWest (270°)15.0 mph28.8 mphOvercast
5:35 PM21.2 °F9.0 °F59 %29.70 in10.0 miWest (280°)18.4 mph24.2 mphOvercast
5:54 PM21.7 °F6.3 °F51 %29.70 in10.0 miWest (280°)21.9 mph29.9 mphOvercast
6:15 PM21.0 °F9.5 °F61 %29.72 in10.0 miWNW (290°)9.2 mph24.2 mphOvercast
6:34 PM20.8 °F8.2 °F58 %29.73 in10.0 miWest (280°)17.3 mph24.2 mphOvercast
6:54 PM20.8 °F5.4 °F51 %29.73 in10.0 miWest (280°)20.7 mph27.6 mphOvercast
7:15 PM20.8 °F5.4 °F51 %29.74 in10.0 miWest (270°)16.1 mph25.3 mphOvercast
7:34 PM20.3 °F7.3 °F57 %29.75 in10.0 miWest (270°)16.1 mph23.0 mphOvercast
7:54 PM20.3 °F8.2 °F60 %29.76 in10.0 miWest (270°)16.1 mph21.9 mphOvercast
8:15 PM20.3 °F7.9 °F59 %29.76 in10.0 miWest (280°)17.3 mph23.0 mphOvercast
8:34 PM20.1 °F7.9 °F59 %29.77 in10.0 miWest (270°)15.0 mph24.2 mphOvercast
8:54 PM20.1 °F7.9 °F59 %29.77 in10.0 miWest (270°)18.4 mph23.0 mphOvercast
9:15 PM19.9 °F8.4 °F61 %29.78 in10.0 miWest (270°)17.3 mph25.3 mphOvercast
9:34 PM19.8 °F8.1 °F61 %29.79 in10.0 miWest (280°)17.3 mph21.9 mphOvercast
10:15 PM19.4 °F9.3 °F65 %29.80 in10.0 miWest (270°)17.3 mph23.0 mphOvercast
10:34 PM19.4 °F9.3 °F65 %29.80 in10.0 miWest (270°)13.8 mph21.9 mphOvercast
11:14 PM19.4 °F9.7 °F66 %29.81 in10.0 miWest (280°)15.0 mph20.7 mphOvercast
11:34 PM19.4 °F9.9 °F66 %29.81 in7.0 miWest (280°)16.1 mph23.0 mphSnowLight Snow
11:55 PM19.2 °F10.4 °F69 %29.82 in4.0 miWest (270°)16.1 mph20.7 mphSnowLight Snow
Hourly data recorded from KCFS, located miles away from Cass City, Michigan







STORIES FROM OUR PARTNERS